This is the latest recevied weather packets stored in our database for station/object N0HEQ. If no packets are shown the sender has not sent any weather packets the latest 10 day(s).
| Time | Temp. | Humidity | Pressure | Rain* | Wind** | Luminosity | Snow |
|---|---|---|---|---|---|---|---|
| 1777517559 | 6.67° C | 87% | 1022.9 hPa | 0 mm | - | 0 W/m² | - |
| 1777517258 | 6.67° C | 87% | 1022.7 hPa | 0 mm | - | 0 W/m² | - |
| 1777516957 | 6.67° C | 87% | 1022.7 hPa | 0 mm | - | 0 W/m² | - |
| 1777516653 | 6.67° C | 88% | 1022.8 hPa | 0 mm | - | 0 W/m² | - |
| 1777516349 | 6.67° C | 88% | 1022.8 hPa | 0 mm | - | 0 W/m² | - |
| 1777516045 | 7.22° C | 88% | 1022.7 hPa | 0 mm | - | 0 W/m² | - |
| 1777515743 | 7.22° C | 88% | 1022.7 hPa | 0 mm | - | 0 W/m² | - |
| 1777515439 | 7.22° C | 88% | 1022.3 hPa | 0 mm | - | 0 W/m² | - |
| 1777515136 | 7.22° C | 87% | 1022.5 hPa | 0 mm | - | 0 W/m² | - |
| 1777514832 | 7.78° C | 86% | 1022.3 hPa | 0 mm | - | 0 W/m² | - |
| 1777514529 | 7.78° C | 85% | 1022.6 hPa | 0 mm | - | 0 W/m² | - |
| 1777514227 | 7.78° C | 85% | 1022.3 hPa | 0 mm | - | 1 W/m² | - |
| 1777513922 | 7.78° C | 85% | 1022.5 hPa | 0 mm | - | 2 W/m² | - |
| 1777513620 | 7.78° C | 84% | 1022 hPa | 0 mm | - | 3 W/m² | - |
| 1777513316 | 7.78° C | 84% | 1022.1 hPa | 0 mm | - | 4 W/m² | - |
| 1777513013 | 7.78° C | 82% | 1021.9 hPa | 0 mm | - | 5 W/m² | - |
| 1777512709 | 7.78° C | 78% | 1022 hPa | 0 mm | - | 6 W/m² | - |
| 1777512406 | 7.78° C | 77% | 1021.9 hPa | 0 mm | - | 7 W/m² | - |
| 1777512103 | 8.33° C | 79% | 1021.9 hPa | 0 mm | - | 7 W/m² | - |
| 1777511801 | 8.33° C | 75% | 1021.9 hPa | 0 mm | - | 5 W/m² | - |
| 1777511497 | 8.33° C | 76% | 1021.5 hPa | 0 mm | - | 7 W/m² | - |
| 1777511195 | 8.33° C | 76% | 1021.5 hPa | 0 mm | - | 10 W/m² | - |
| 1777510890 | 8.33° C | 75% | 1021.6 hPa | 0 mm | - | 11 W/m² | - |
| 1777510587 | 8.89° C | 76% | 1021.5 hPa | 0 mm | - | 18 W/m² | - |
| 1777510283 | 8.89° C | 74% | 1021.4 hPa | 0 mm | - | 22 W/m² | - |
* Rain latest hour (hover to see other rain measurements)
** Current wind speed in m/s (hover to see current wind gust speed)